LKPR Weather Reports


Display with metric or nautical units.
time (UTC)temp
F
wind
direction
speed
MPH
gust
MPH
rain 1hr
in
rain 24hr
in
rain mn
in
humidity
%
barometer
mb
20260505213202 55 280 16.0 0.0 0.00 0.00 0.00 93 1007.0
20260505211834 57 270 16.0 0.0 0.00 0.00 0.00 93
20260505210203 57 270 16.0 0.0 0.00 0.00 0.00 93 1006.0
20260505205402 57 260 15.0 0.0 0.00 0.00 0.00 93 1006.0
20260505205103 57 250 15.0 0.0 0.00 0.00 0.00 93 1006.0
20260505203503 61 280 10.0 0.0 0.00 0.00 0.00 77 1005.0
20260505203203 61 280 12.0 0.0 0.00 0.00 0.00 77 1005.0
20260505202202 63 290 10.0 0.0 0.00 0.00 0.00 67 1005.0
20260505202005 63 290 10.0 0.0 0.00 0.00 0.00 63 1005.0
20260505201817 63 240 14.0 0.0 0.00 0.00 0.00 59
20260505201303 63 270 10.0 0.0 0.00 0.00 0.00 63 1005.0
20260505200203 63 240 15.0 0.0 0.00 0.00 0.00 63 1005.0
20260505195102 61 250 5.0 0.0 0.00 0.00 0.00 67 1005.0
20260505193202 63 10 6.0 0.0 0.00 0.00 0.00 63 1004.0
20260505191835 64 50 9.0 0.0 0.00 0.00 0.00 55
20260505190203 64 50 7.0 0.0 0.00 0.00 0.00 55 1004.0
20260505183202 64 20 6.0 0.0 0.00 0.00 0.00 55 1004.0
20260505181819 66 110 9.0 0.0 0.00 0.00 0.00 52
20260505180202 66 110 10.0 0.0 0.00 0.00 0.00 52 1004.0
20260505173203 66 110 13.0 0.0 0.00 0.00 0.00 52 1004.0
20260505171802 68 130 14.0 0.0 0.00 0.00 0.00 49
20260505170204 68 130 13.0 0.0 0.00 0.00 0.00 49 1005.0
20260505163202 72 80 7.0 0.0 0.00 0.00 0.00 46 1004.0
20260505161901 72 80 9.0 0.0 0.00 0.00 0.00 43
20260505160203 72 90 8.0 0.0 0.00 0.00 0.00 43 1004.0
20260505153203 72 60 6.0 0.0 0.00 0.00 0.00 43 1005.0
20260505151800 73 60 7.0 0.0 0.00 0.00 0.00 35
20260505150202 73 50 7.0 0.0 0.00 0.00 0.00 40 1005.0
20260505140204 72 40 7.0 0.0 0.00 0.00 0.00 40 1006.0
20260505130203 73 30 8.0 0.0 0.00 0.00 0.00 40 1006.0
20260505123203 73 40 7.0 0.0 0.00 0.00 0.00 43 1006.0
20260505121803 72 90 9.0 0.0 0.00 0.00 0.00 40
20260505120203 72 50 7.0 0.0 0.00 0.00 0.00 43 1007.0
20260505113202 72 60 6.0 0.0 0.00 0.00 0.00 43 1007.0
20260505111802 72 10 9.0 0.0 0.00 0.00 0.00 40
20260505110201 72 60 6.0 0.0 0.00 0.00 0.00 43 1007.0
20260505101803 70 20 9.0 0.0 0.00 0.00 0.00 49
20260505100203 70 40 7.0 0.0 0.00 0.00 0.00 49 1008.0
20260505093203 68 40 7.0 0.0 0.00 0.00 0.00 52 1008.0
20260505091802 68 30 9.0 0.0 0.00 0.00 0.00 52
20260505090203 68 10 7.0 0.0 0.00 0.00 0.00 52 1008.0
20260505083203 66 40 7.0 0.0 0.00 0.00 0.00 59 1008.0
20260505081803 64 30 7.0 0.0 0.00 0.00 0.00 59
20260505080203 64 20 8.0 0.0 0.00 0.00 0.00 63 1008.0
20260505073203 63 30 6.0 0.0 0.00 0.00 0.00 67 1009.0
20260505071801 61 40 7.0 0.0 0.00 0.00 0.00 72
20260505070203 61 40 5.0 0.0 0.00 0.00 0.00 67 1008.0
20260505063202 61 350 3.0 0.0 0.00 0.00 0.00 72 1009.0
20260505061805 59 10 5.0 0.0 0.00 0.00 0.00 72
20260505060203 59 10 3.0 0.0 0.00 0.00 0.00 72 1009.0
20260505053202 57 310 7.0 0.0 0.00 0.00 0.00 76 1009.0
20260505051802 57 280 5.0 0.0 0.00 0.00 0.00 82
20260505050202 57 290 6.0 0.0 0.00 0.00 0.00 82 1009.0
20260505040203 52 280 3.0 0.0 0.00 0.00 0.00 93 1009.0
20260505033202 55 0 0.0 0.0 0.00 0.00 0.00 82 1009.0
20260505031801 54 0 2.0 0.0 0.00 0.00 0.00 87
20260505030204 55 0 2.0 0.0 0.00 0.00 0.00 82 1009.0
20260505023203 55 320 6.0 0.0 0.00 0.00 0.00 82 1009.0
20260505021801 55 320 5.0 0.0 0.00 0.00 0.00 82
20260505020203 55 310 2.0 0.0 0.00 0.00 0.00 87 1009.0
20260505013203 55 0 1.0 0.0 0.00 0.00 0.00 87 1009.0
20260505011805 55 320 5.0 0.0 0.00 0.00 0.00 82
20260505010203 55 330 3.0 0.0 0.00 0.00 0.00 87 1010.0
20260505003203 57 350 3.0 0.0 0.00 0.00 0.00 82 1010.0
20260505001802 57 50 5.0 0.0 0.00 0.00 0.00 76
20260505000204 57 70 5.0 0.0 0.00 0.00 0.00 82 1010.0
20260504233203 57 110 8.0 0.0 0.00 0.00 0.00 82 1011.0
20260504231805 61 120 12.0 0.0 0.00 0.00 0.00 67
20260504230202 59 120 10.0 0.0 0.00 0.00 0.00 77 1011.0
20260504224402 59 130 15.0 0.0 0.00 0.00 0.00 82 1011.0
20260504223202 59 130 18.0 0.0 0.00 0.00 0.00 77 1012.0
20260504221809 59 250 5.0 0.0 0.00 0.00 0.00 67
20260504221802 61 160 9.0 0.0 0.00 0.00 0.00 72 1012.0
20260504220409 59 210 5.0 0.0 0.00 0.00 0.00 67 1012.0
20260504220201 59 230 3.0 0.0 0.00 0.00 0.00 67 1012.0